GRACE-FO 1

operational
NORAD ID: 43476 Int'l Des: 2018-047 Owner: JPL/GFZ Country: US
LEOCIRCULARPOLAR

Über GRACE-FO 1

Beschreibung wird geladen...

Live-Position

3D-Globus wird geladen...

Nächste Überflüge

Höhenverlauf

Altitude vs Time

uPlot chart will show altitude changes over time

Zweizeiliger Elementsatz

1 43476U 18047A 26061.11829340 .00006189 00000-0 16805-3 0 9994
2 43476 88.9882 212.6568 0011997 155.8476 204.3344 15.37337370433348
Epoch: 2. März 2026 • Age: 37 hours

Aktueller Status

Höhe 478.7 km
Geschwindigkeit 7.62 km/s
Subsatellitenpunkt -43.11°S, 145.12°W
Startdatum 22. Mai 2018
Alter 7.7 years
Typ other

Technische Details

Klassifizierung Payload
Masse 600.00 kg
Trockenmasse 500.00 kg
Gesamtmasse 600.00 kg
Länge 3.10 m
Durchmesser 0.70 m
Spannweite 3.10 m
Form Half Hex Prism
Hersteller ADSB
Bus-Typ FlexBus
Phasenstatus In Orbit
Besitzer/Staat JPL/GFZ/US

Große Konstellationen

Loading constellations...